Mayfld Grav Cnty AP, Mayfield, KY

6:23 AM CDT on October 14, 2019 (GMT -0500)
Mayfld Grav Cnty AP, Mayfield

Weather History for KM25 - August, 2019

Change the Weather History Date:

Thursday, August 15, 2019

  Actual Average (KPAH) Record (KPAH)
Temperature  
Mean Temperature 76 °F 78 °F  
Max Temperature 84 °F 89 °F 103 °F (1954)
Min Temperature 68 °F 67 °F 49 °F (2004)
Degree Days  
Heating Degree Days 0 0  
Month to date heating degree days 0  
Since 1 June heating degree days 4  
Since 1 July heating degree days 0  
Cooling Degree Days 11 13  
Month to date cooling degree days 196  
Year to date cooling degree days 1119  
Since 1 June cooling degree days 947  
Growing Degree Days 26 (Base 50)    
Moisture  
Dew Point 65 °F    
Average Humidity 71    
Maximum Humidity 88    
Minimum Humidity 48    
Precipitation  
Precipitation 0.00 in 0.08 in 1.17 in (1966)
Month to date precipitation 1.42  
Year to date precipitation 31.14  
Snow  
Snow 0.00 in 0.00 in 0.00 in (2002)
Month to date snowfall 0.0  
Since 1 June snowfall 0.0  
Since 1 July snowfall 0.0  
Snow Depth -    
Sea Level Pressure  
Sea Level Pressure 30.02 in    
Wind  
Wind Speed 4 mph (NNW)    
Max Wind Speed 9 mph    
Max Gust Speed -    
Visibility 10 miles    
Events      
T = Trace of Precipitation, MM = Missing Value Source: NWS Daily Summary

Daily Weather History Graph

Daily Weather History Graph

Search for Another Location

Airport or City:

Astronomy

Aug. 15, 2019 Rise Set
Actual Time 6:11 AM CDT 7:45 PM CDT
Civil Twilight 5:43 AM CDT 8:13 PM CDT
Nautical Twilight 5:10 AM CDT 8:46 PM CDT
Astronomical Twilight 4:35 AM CDT 9:21 PM CDT
Moon 8:13 PM CDT (8/15) 6:06 AM CDT (8/15)
Length of Visible Light 14h 29m
Length of Day
13h 34m
Full, 100% of the Moon is Illuminated
Aug 15
Full
Aug 23
Last Quarter
Aug 30
New
Sep 5
First Quarter
Sep 13
Full

Hourly Weather History & Observations

Time (CDT) Temp. Heat Index Dew Point Humidity Pressure Visibility Wind Dir Wind Speed Gust Speed Precip Events Conditions
12:15 AM 73.4 °F - 68.0 °F 83% 30.03 in 10.0 mi Calm Calm - N/A   Scattered Clouds
12:35 AM 73.4 °F - 68.0 °F 83% 30.02 in 10.0 mi NNW 3.5 mph - N/A   Overcast
12:55 AM 73.4 °F - 68.0 °F 83% 30.02 in 10.0 mi WNW 3.5 mph - N/A   Scattered Clouds
1:15 AM 73.4 °F - 68.0 °F 83% 30.02 in 10.0 mi WNW 4.6 mph - N/A   Clear
1:35 AM 73.4 °F - 68.0 °F 83% 30.02 in 10.0 mi WNW 4.6 mph - N/A   Clear
2:15 AM 73.4 °F - 68.0 °F 83% 30.00 in 10.0 mi NNW 5.8 mph - N/A   Clear
2:35 AM 71.6 °F - 68.0 °F 88% 30.00 in 10.0 mi NNW 3.5 mph - N/A   Clear
2:55 AM 71.6 °F - 66.2 °F 83% 30.00 in 10.0 mi Calm Calm - N/A   Clear
3:15 AM 71.6 °F - 68.0 °F 88% 30.00 in 10.0 mi North 4.6 mph - N/A   Clear
3:35 AM 71.6 °F - 66.2 °F 83% 29.99 in 10.0 mi North 4.6 mph - N/A   Clear
3:55 AM 69.8 °F - 66.2 °F 88% 29.99 in 10.0 mi North 4.6 mph - N/A   Clear
4:15 AM 69.8 °F - 66.2 °F 88% 29.99 in 10.0 mi North 3.5 mph - N/A   Clear
4:35 AM 69.8 °F - 66.2 °F 88% 29.99 in 10.0 mi North 4.6 mph - N/A   Clear
4:55 AM 69.8 °F - 66.2 °F 88% 30.00 in 10.0 mi NNW 4.6 mph - N/A   Clear
5:15 AM 69.8 °F - 64.4 °F 83% 30.00 in 10.0 mi North 3.5 mph - N/A   Clear
5:35 AM 69.8 °F - 64.4 °F 83% 30.01 in 10.0 mi North 3.5 mph - N/A   Clear
5:55 AM 68.0 °F - 64.4 °F 88% 30.02 in 10.0 mi NNW 3.5 mph - N/A   Clear
6:15 AM 68.0 °F - 64.4 °F 88% 30.03 in 10.0 mi Calm Calm - N/A   Clear
6:35 AM 68.0 °F - 64.4 °F 88% 30.03 in 10.0 mi Calm Calm - N/A   Clear
6:55 AM 68.0 °F - 64.4 °F 88% 30.04 in 10.0 mi Calm Calm - N/A   Clear
7:15 AM 69.8 °F - 64.4 °F 83% 30.04 in 10.0 mi North 3.5 mph - N/A   Clear
7:35 AM 71.6 °F - 66.2 °F 83% 30.05 in 10.0 mi Calm Calm - N/A   Clear
7:55 AM 71.6 °F - 66.2 °F 83% 30.05 in 10.0 mi NNW 4.6 mph - N/A   Clear
8:15 AM 73.4 °F - 66.2 °F 78% 30.06 in 10.0 mi NNW 5.8 mph - N/A   Clear
8:35 AM 73.4 °F - 68.0 °F 83% 30.06 in 10.0 mi NNW 4.6 mph - N/A   Clear
8:55 AM 75.2 °F - 66.2 °F 73% 30.06 in 10.0 mi North 6.9 mph - N/A   Clear
9:35 AM 77.0 °F - 68.0 °F 74% 30.06 in 10.0 mi NNW 4.6 mph - N/A   Clear
9:55 AM 77.0 °F - 68.0 °F 74% 30.06 in 10.0 mi NNW 3.5 mph - N/A   Clear
10:35 AM 78.8 °F - 62.6 °F 57% 30.07 in 10.0 mi NW 9.2 mph - N/A   Clear
10:55 AM 78.8 °F - 64.4 °F 61% 30.07 in 10.0 mi NNW 8.1 mph - N/A   Clear
11:15 AM 80.6 °F 82.3 °F 64.4 °F 58% 30.07 in 10.0 mi NNW 8.1 mph - N/A   Clear
11:35 AM 80.6 °F 81.8 °F 62.6 °F 54% 30.06 in 10.0 mi NW 5.8 mph - N/A   Clear
12:15 PM 80.6 °F 81.8 °F 62.6 °F 54% 30.05 in 10.0 mi North 6.9 mph - N/A   Clear
12:35 PM 80.6 °F 81.8 °F 62.6 °F 54% 30.05 in 10.0 mi North 3.5 mph - N/A   Clear
12:55 PM 82.4 °F 83.4 °F 62.6 °F 51% 30.04 in 10.0 mi WNW 9.2 mph - N/A   Clear
1:15 PM 82.4 °F 83.4 °F 62.6 °F 51% 30.04 in 10.0 mi WNW 8.1 mph - N/A   Clear
1:35 PM 82.4 °F 83.4 °F 62.6 °F 51% 30.04 in 10.0 mi North 6.9 mph - N/A   Clear
1:55 PM 82.4 °F 83.4 °F 62.6 °F 51% 30.03 in 10.0 mi WNW 8.1 mph - N/A   Clear
2:15 PM 82.4 °F 83.4 °F 62.6 °F 51% 30.03 in 10.0 mi NW 8.1 mph - N/A   Scattered Clouds
2:35 PM 82.4 °F 83.4 °F 62.6 °F 51% 30.03 in 10.0 mi WNW 8.1 mph - N/A   Clear
2:55 PM 82.4 °F 83.4 °F 62.6 °F 51% 30.03 in 10.0 mi NNW 8.1 mph - N/A   Clear
3:15 PM 82.4 °F 83.4 °F 62.6 °F 51% 30.03 in 10.0 mi NNW 9.2 mph - N/A   Scattered Clouds
3:35 PM 84.2 °F 85.0 °F 62.6 °F 48% 30.03 in 10.0 mi NW 9.2 mph - N/A   Scattered Clouds
3:55 PM 84.2 °F 85.0 °F 62.6 °F 48% 30.03 in 10.0 mi NW 8.1 mph - N/A   Scattered Clouds
4:15 PM 84.2 °F 85.0 °F 62.6 °F 48% 30.02 in 10.0 mi NW 8.1 mph - N/A   Scattered Clouds
4:35 PM 84.2 °F 85.0 °F 62.6 °F 48% 30.02 in 10.0 mi NNW 5.8 mph - N/A   Clear
4:55 PM 84.2 °F 85.0 °F 62.6 °F 48% 30.02 in 10.0 mi North 5.8 mph - N/A   Clear
5:15 PM 84.2 °F 85.0 °F 62.6 °F 48% 30.01 in 10.0 mi NNW 4.6 mph - N/A   Clear
5:35 PM 82.4 °F 83.4 °F 62.6 °F 51% 30.01 in 10.0 mi North 5.8 mph - N/A   Clear
5:55 PM 82.4 °F 83.4 °F 62.6 °F 51% 30.00 in 10.0 mi NNW 5.8 mph - N/A   Clear
6:15 PM 82.4 °F 83.4 °F 62.6 °F 51% 30.00 in 10.0 mi North 6.9 mph - N/A   Clear
6:35 PM 82.4 °F 83.4 °F 62.6 °F 51% 29.99 in 10.0 mi NNE 4.6 mph - N/A   Clear
6:55 PM 80.6 °F 81.8 °F 62.6 °F 54% 29.99 in 10.0 mi Calm Calm - N/A   Clear
7:15 PM 80.6 °F 81.8 °F 62.6 °F 54% 30.00 in 10.0 mi Calm Calm - N/A   Clear
7:35 PM 78.8 °F - 64.4 °F 61% 30.00 in 10.0 mi Calm Calm - N/A   Clear
7:55 PM 77.0 °F - 64.4 °F 65% 30.00 in 10.0 mi Calm Calm - N/A   Clear
8:35 PM 73.4 °F - 66.2 °F 78% 30.01 in 10.0 mi Calm Calm - N/A   Clear
8:55 PM 73.4 °F - 64.4 °F 73% 30.01 in 10.0 mi Calm Calm - N/A   Clear
9:15 PM 71.6 °F - 64.4 °F 78% 30.01 in 10.0 mi Calm Calm - N/A   Clear
9:35 PM 69.8 °F - 64.4 °F 83% 30.01 in 10.0 mi Calm Calm - N/A   Clear
9:55 PM 69.8 °F - 64.4 °F 83% 30.01 in 10.0 mi Calm Calm - N/A   Clear
10:15 PM 68.0 °F - 64.4 °F 88% 30.01 in 10.0 mi Calm Calm - N/A   Clear
10:35 PM 68.0 °F - 64.4 °F 88% 30.00 in 10.0 mi ESE 4.6 mph - N/A   Clear
10:55 PM 68.0 °F - 64.4 °F 88% 30.01 in 10.0 mi Calm Calm - N/A   Clear
11:15 PM 68.0 °F - 64.4 °F 88% 30.02 in 10.0 mi Calm Calm - N/A   Clear
11:35 PM 68.0 °F - 64.4 °F 88% 30.03 in 10.0 mi Calm Calm - N/A   Clear
11:55 PM 68.0 °F - 64.4 °F 88% 30.03 in 10.0 mi Calm Calm - N/A   Clear